Flag for U.S.A. Weather past 2 weeks in Lexington, Virginia, U.S.A.

Now
35 °F

Mostly cloudy.


Feels Like: 32 °F
Forecast: 33 / 43 °F
Wind: 3 mph from South

Location: Hot Springs / Ingalls

Current Time: Jan 25, 2015 at 9:25:48 PM

Latest Report: Jan 25, 2015 at 8:55 PM


Visibility: 10 mi

Pressure: 29.70 "Hg

Humidity: 85%

Dew point: 31 °F

Location of LexingtonLocation

Historic Weather in Lexington — Graph

°F

Lexington temperature yesterday

Maximum temperature yesterday: 32 °F (at 3:35 AM)
Minimum temperature yesterday: 23 °F (at 6:15 PM)
Average temperature yesterday: 28 °F

Past Weeks' High & Low Weather Summary

 TemperatureHumidityPressure
High47 °F (Jan 12, 8:50 AM)100% (Jan 11, 11:55 PM)30.42 "Hg (Jan 11, 11:55 PM)
Low17 °F (Jan 14, 2:35 AM)11% (Jan 11, 10:35 AM)29.43 "Hg (Jan 24, 12:55 PM)
Average31 °F80%29.99 "Hg
* Reported Jan 10 8:15 PM — Jan 25 8:15 PM, Lexington, Weather by CustomWeather, © 2014

Note: Actual official high and low records may vary slightly from our data, if they occured in-between our weather recording intervals... More about our weather records

Advertising

Lexington weather history for previous 24 hours

 ConditionsComfort  
Time TempWeatherWind HumidityBarometerVisibility
8:15 PM
Jan 25
34 °FPassing clouds.3 mph91%29.70 "Hg10 mi
7:55 PM34 °FPassing clouds.3 mph92%29.71 "Hg10 mi
7:15 PM34 °FClear.3 mph92%29.71 "Hg10 mi
6:55 PM35 °FClear.5 mph91%29.71 "Hg10 mi
6:15 PM34 °FClear.3 mph97%29.71 "Hg10 mi
5:55 PM34 °FClear.No wind99%29.71 "Hg10 mi
5:15 PM34 °FSunny.No wind97%29.70 "Hg10 mi
4:15 PM34 °FSunny.No wind100%29.70 "Hg10 mi
3:55 PM34 °FSunny.3 mph100%29.70 "Hg10 mi
3:35 PM34 °FSunny.3 mph95%29.70 "Hg10 mi
3:15 PM33 °FSunny.No wind99%29.69 "Hg10 mi
2:55 PM33 °FSunny.3 mph100%29.71 "Hg10 mi
2:15 PM32 °FSunny.6 mph100%29.71 "Hg10 mi
1:55 PM32 °FSunny.No wind100%29.71 "Hg7 mi
1:35 PM32 °FSunny.5 mph100%29.71 "Hg10 mi
1:15 PM32 °FChilly.3 mph100%29.71 "HgN/A
12:55 PM32 °FScattered clouds.No wind100%29.72 "Hg10 mi
12:35 PM31 °FPartly sunny.5 mph100%29.73 "Hg10 mi
12:15 PM31 °FMore clouds than sun.No wind100%29.73 "Hg7 mi
11:55 AM30 °FIce fog.5 mph100%29.74 "Hg2 mi
11:35 AM30 °FIce fog.5 mph100%29.74 "Hg3 mi
11:15 AM30 °FIce fog.6 mph100%29.75 "Hg2 mi
10:55 AM30 °FIce fog.6 mph100%29.75 "Hg2 mi
10:35 AM30 °FIce fog.6 mph100%29.75 "Hg1 mi
10:15 AM30 °FIce fog.7 mph100%29.74 "Hg0 mi
9:55 AM29 °FIce fog.7 mph100%29.74 "Hg0 mi
9:35 AM29 °FIce fog.7 mph100%29.74 "Hg0 mi
9:15 AM29 °FLight snow. Low clouds.9 mph100%29.74 "Hg0 mi
8:55 AM29 °FIce fog.10 mph100%29.74 "Hg0 mi
8:35 AM29 °FIce fog.8 mph100%29.73 "Hg1 mi
8:15 AM29 °FIce fog.7 mph100%29.73 "Hg1 mi
7:55 AM29 °FIce fog.8 mph100%29.72 "Hg2 mi
7:35 AM28 °FIce fog.8 mph100%29.71 "Hg4 mi
7:15 AM28 °FIce fog.9 mph100%29.71 "Hg5 mi
6:55 AM28 °FIce fog.9 mph100%29.70 "Hg5 mi
6:35 AM28 °FIce fog.8 mph100%29.69 "Hg5 mi
6:15 AM28 °FIce fog.8 mph100%29.69 "Hg5 mi
5:55 AM27 °FIce fog.8 mph100%29.68 "Hg2 mi
5:35 AM27 °FIce fog.8 mph100%29.67 "Hg4 mi
5:15 AM27 °FIce fog.8 mph100%29.67 "Hg4 mi
4:55 AM27 °FIce fog.13 mph100%29.67 "Hg5 mi
4:35 AM27 °FLow clouds.13 mph100%29.65 "Hg7 mi
4:15 AM27 °FLow clouds.13 mph100%29.65 "Hg7 mi
3:55 AM27 °FLow clouds.14 mph100%29.64 "Hg10 mi
3:35 AM26 °FLow clouds.13 mph100%29.63 "Hg10 mi
3:15 AM26 °FLow clouds.12 mph100%29.63 "Hg10 mi
2:55 AM26 °FLow clouds.13 mph100%29.63 "Hg10 mi
2:15 AM26 °FLow clouds.14 mph100%29.62 "Hg10 mi
1:55 AM26 °FLow clouds.13 mph100%29.62 "Hg10 mi
1:35 AM26 °FLow clouds.12 mph100%29.62 "Hg10 mi
1:15 AM26 °FLow clouds.10 mph100%29.61 "Hg10 mi
12:55 AM26 °FLow clouds.15 mph100%29.60 "Hg10 mi
12:35 AM26 °FLow clouds.15 mph100%29.60 "Hg10 mi
12:15 AM26 °FLow clouds.16 mph100%29.58 "Hg10 mi
11:55 PM
Jan 24
26 °FLow clouds.15 mph100%29.58 "Hg10 mi
11:15 PM26 °FLow clouds.15 mph100%29.58 "Hg7 mi
10:35 PM26 °FIce fog.16 mph100%29.57 "Hg3 mi
10:15 PM26 °FIce fog.17 mph100%29.56 "Hg1 mi
9:55 PM26 °FIce fog.16 mph100%29.56 "Hg0 mi
9:35 PM25 °FIce fog.13 mph100%29.56 "Hg0 mi
9:15 PM25 °FIce fog.16 mph100%29.55 "Hg1 mi
Weather by CustomWeather, © 2014

See weather overviewHow to use our weather pages